User: anonymous   Login
Location: Caltech
(34.1382°N, 118.1253°W)
Time: 03:49:57
(UTC-07:00)
Language:

Cosmos 676 Rocket - Orbit

View from above orbital plane
View from above orbital plane
View from above satellite
View from above satellite

Ground track
Ground track

The orbit data is extracted from the following two-line orbital elements,

1  7434U 74071B   18114.83771866 +.00000035 +00000-0 +20662-4 0  9996
2  7434 074.0486 001.6798 0021110 197.8166 162.2249 14.36668122281199
Epoch (UTC): 24 April 2018 20:06:18
Eccentricity: 0.0021110
inclination: 74.0486°
perigee height: 754 km
apogee height: 784 km
right ascension of ascending node: 1.6798°
argument of perigee: 197.8166°
revolutions per day: 14.36668122
mean anomaly at epoch: 162.2249°
orbit number at epoch: 28119

The dashed part of the orbit path shows where the satellite is in the earth's shadow,  

DLR